Ciudad Victoria, Mexico

2:51 AM CST on January 21, 2018 (GMT -0600)
Ciudad Victoria

Weather History for MMCV - March, 2013

Change the Weather History Date:

Wednesday, March 13, 2013

  Actual Average Record
Temperature  
Mean Temperature 68 °F -  
Max Temperature 84 °F 86 °F 96 °F (2001)
Min Temperature 51 °F 63 °F 50 °F (2009)
Cooling Degree Days 2    
Growing Degree Days 18 (Base 50)    
Moisture  
Dew Point 46 °F    
Average Humidity 47    
Maximum Humidity 96    
Minimum Humidity 20    
Precipitation  
Precipitation 0.00 in - - ()
Sea Level Pressure  
Sea Level Pressure 30.31 in    
Wind  
Wind Speed 4 mph ()    
Max Wind Speed 17 mph    
Max Gust Speed -    
Visibility 7.0 miles    
Events      
Averages and records for this station are not official NWS values.
T = Trace of Precipitation, MM = Missing Value Source: Averaged Metar Reports

Daily Weather History Graph

Daily Weather History Graph

Search for Another Location

Airport or City:

Trip Planner

Search our weather history database for the weather conditions in past years. The results will help you decide how hot, cold, wet, or windy it might be!

Date:

Astronomy

Mar. 13, 2013 Rise Set
Actual Time 6:46 AM CST 6:44 PM CST
Civil Twilight 6:23 AM CST 7:06 PM CST
Nautical Twilight 5:57 AM CST 7:33 PM CST
Astronomical Twilight 5:31 AM CST 7:59 PM CST
Moon 7:44 AM CST (3/13) 8:41 PM CST (3/13)
Length of Visible Light 12h 43m
Length of Day
11h 57m
Waxing Crescent, 4% of the Moon is Illuminated
Mar 13
Waxing Crescent
Mar 19
First Quarter
Mar 27
Full
Apr 2
Last Quarter
Apr 10
New

Hourly Weather History & Observations

Time (CST) Temp. Dew Point Humidity Pressure Visibility Wind Dir Wind Speed Gust Speed Precip Events Conditions
2:45 AM 58 °F 54 °F 80% 30.26 in 4 mi WSW 2.2 mph - -  
5:45 AM 55 °F 54 °F 96% 30.27 in 4 mi Calm Calm - -  
6:05 AM 55.4 °F 46.4 °F 72% 30.27 in 8.0 mi North 4.6 mph - N/A   Partly Cloudy
6:42 AM 53.6 °F 46.4 °F 77% 30.27 in 8.0 mi North 3.5 mph - N/A   Scattered Clouds
7:42 AM 53.6 °F 44.6 °F 72% 30.31 in 8.0 mi West 3.5 mph - N/A   Scattered Clouds
8:47 AM 60.8 °F 48.2 °F 63% 30.36 in 8.0 mi West 2.3 mph - N/A   Mostly Cloudy
8:50 AM 59 °F 55 °F 84% 30.39 in 6 mi Calm Calm - -   Clear
9:41 AM 68.0 °F 50.0 °F 52% 30.36 in 8.0 mi North 2.3 mph - N/A   Mostly Cloudy
10:42 AM 71.6 °F 50.0 °F 46% 30.36 in 8.0 mi West 2.3 mph - N/A   Overcast
11:45 AM 73.4 °F 50.0 °F 44% 30.36 in 8.0 mi ENE 4.6 mph - N/A   Overcast
11:50 AM 74 °F 57 °F 45% 30.41 in 6 mi ENE 4.5 mph - -   Clear
12:40 PM 77.0 °F 46.4 °F 34% 30.32 in 8.0 mi North 4.6 mph - N/A   Overcast
1:45 PM 78.8 °F 39.2 °F 24% 30.28 in 8.0 mi NW 4.6 mph - N/A   Overcast
2:45 PM 80.6 °F 37.4 °F 21% 30.27 in 8.0 mi Calm Calm - N/A   Overcast
2:50 PM 83 °F 52 °F 24% 30.30 in 6 mi NE 2.2 mph - -   Clear
3:41 PM 80.6 °F 39.2 °F 23% 30.23 in 8.0 mi NE 9.2 mph - N/A   Overcast
4:44 PM 80.6 °F 35.6 °F 20% 30.22 in 8.0 mi NE 4.6 mph - N/A   Overcast
5:46 PM 78.8 °F 37.4 °F 23% 30.25 in 8.0 mi ENE 16.1 mph - N/A   Overcast
5:50 PM 79 °F 47 °F 21% 30.27 in 6 mi North 2.2 mph - -   Overcast
6:48 PM 73.4 °F 32.0 °F 22% 30.23 in 8.0 mi East 17.3 mph - N/A   Overcast
7:52 PM 69.8 °F 39.2 °F 33% 30.29 in 8.0 mi East 12.7 mph - N/A   Overcast
8:50 PM 69 °F 46 °F 32% 30.35 in 4 mi ENE 4.5 mph - -  
9:01 PM 68.0 °F 44.6 °F 43% 30.33 in 6.0 mi East 8.1 mph - N/A   Mostly Cloudy
11:50 PM 64 °F 56 °F 70% 30.38 in 6 mi NW 2.2 mph - -